| time (UTC) | temp C | wind direction | speed KPH | gust KPH | rain 1hr cm | rain 24hr cm | rain mn cm | humidity % | barometer mb |
| 20260506183705 | 20 | 238 | 0.0 | 1.6 | 0.03 | 0.03 | 0.03 | 79 | 1005.8 |
| 20260506181704 | 21 | 233 | 3.2 | 8.0 | 0.00 | 0.00 | 0.00 | 70 | 1005.9 |
| 20260506173204 | 22 | 190 | 4.8 | 19.3 | 0.00 | 0.00 | 0.00 | 60 | 1005.7 |
| 20260506171704 | 23 | 177 | 4.8 | 20.9 | 0.00 | 0.00 | 0.00 | 61 | 1005.7 |
| 20260506171205 | 23 | 218 | 4.8 | 16.1 | 0.00 | 0.00 | 0.00 | 60 | 1005.7 |
| 20260506170705 | 23 | 158 | 3.2 | 4.8 | 0.00 | 0.00 | 0.00 | 61 | 1005.9 |
| 20260506170204 | 23 | 184 | 3.2 | 14.5 | 0.00 | 0.00 | 0.00 | 62 | 1005.9 |
| 20260506165704 | 22 | 166 | 3.2 | 9.7 | 0.00 | 0.00 | 0.00 | 63 | 1006.0 |
| 20260506165205 | 22 | 231 | 3.2 | 9.7 | 0.00 | 0.00 | 0.00 | 63 | 1006.1 |
| 20260506164705 | 22 | 209 | 3.2 | 11.3 | 0.00 | 0.00 | 0.00 | 62 | 1006.2 |
| 20260506163704 | 22 | 172 | 4.8 | 12.9 | 0.00 | 0.00 | 0.00 | 63 | 1006.3 |
| 20260506163204 | 22 | 183 | 3.2 | 8.0 | 0.00 | 0.00 | 0.00 | 64 | 1006.4 |
| 20260506161704 | 22 | 131 | 3.2 | 4.8 | 0.00 | 0.00 | 0.00 | 65 | 1006.6 |
| 20260506161205 | 22 | 168 | 3.2 | 4.8 | 0.00 | 0.00 | 0.00 | 65 | 1006.6 |
| 20260506160704 | 22 | 169 | 3.2 | 12.9 | 0.00 | 0.00 | 0.00 | 66 | 1006.8 |
| 20260506154704 | 21 | 198 | 3.2 | 9.7 | 0.00 | 0.00 | 0.00 | 67 | 1007.3 |
| 20260506154205 | 21 | 180 | 3.2 | 4.8 | 0.00 | 0.00 | 0.00 | 68 | 1007.4 |
| 20260506153704 | 21 | 196 | 3.2 | 9.7 | 0.00 | 0.00 | 0.00 | 67 | 1007.4 |
| 20260506153204 | 21 | 227 | 4.8 | 14.5 | 0.00 | 0.00 | 0.00 | 66 | 1007.6 |
| 20260506152204 | 21 | 198 | 3.2 | 9.7 | 0.00 | 0.00 | 0.00 | 67 | 1007.7 |
| 20260506151704 | 21 | 172 | 3.2 | 8.0 | 0.00 | 0.00 | 0.00 | 66 | 1007.7 |
| 20260506151205 | 21 | 218 | 3.2 | 4.8 | 0.00 | 0.00 | 0.00 | 67 | 1007.9 |
| 20260506150205 | 21 | 190 | 6.4 | 20.9 | 0.00 | 0.00 | 0.00 | 65 | 1007.7 |
| 20260506142204 | 21 | 190 | 4.8 | 11.3 | 0.00 | 0.00 | 0.00 | 69 | 1007.8 |
| 20260506141704 | 21 | 159 | 3.2 | 4.8 | 0.00 | 0.00 | 0.00 | 70 | 1007.5 |
| 20260506140204 | 20 | 162 | 1.6 | 14.5 | 0.00 | 0.00 | 0.00 | 73 | 1007.5 |
| 20260506135704 | 20 | 197 | 4.8 | 8.0 | 0.00 | 0.00 | 0.00 | 73 | 1007.6 |
| 20260506134704 | 20 | 161 | 3.2 | 9.7 | 0.00 | 0.00 | 0.00 | 74 | 1007.7 |
| 20260506134204 | 19 | 175 | 1.6 | 4.8 | 0.00 | 0.00 | 0.00 | 75 | 1007.8 |
| 20260506133704 | 19 | 175 | 1.6 | 4.8 | 0.00 | 0.00 | 0.00 | 75 | 1007.8 |
| 20260506132704 | 19 | 249 | 3.2 | 12.9 | 0.00 | 0.00 | 0.00 | 76 | 1008.2 |
| 20260506131705 | 18 | 181 | 3.2 | 8.0 | 0.00 | 0.00 | 0.00 | 76 | 1008.4 |
| 20260506131204 | 18 | 187 | 3.2 | 8.0 | 0.00 | 0.00 | 0.00 | 76 | 1008.3 |
| 20260506130204 | 18 | 173 | 1.6 | 4.8 | 0.00 | 0.00 | 0.00 | 76 | 1008.2 |
| 20260506124704 | 18 | 182 | 4.8 | 12.9 | 0.00 | 0.00 | 0.00 | 76 | 1008.5 |
| 20260506123704 | 18 | 178 | 3.2 | 9.7 | 0.00 | 0.00 | 0.00 | 77 | 1008.2 |
| 20260506123204 | 18 | 176 | 1.6 | 4.8 | 0.00 | 0.00 | 0.00 | 77 | 1008.1 |
| 20260506122704 | 18 | 185 | 1.6 | 12.9 | 0.00 | 0.00 | 0.00 | 78 | 1008.2 |
| 20260506122204 | 18 | 174 | 1.6 | 4.8 | 0.00 | 0.00 | 0.00 | 77 | 1008.2 |
| 20260506121204 | 17 | 194 | 1.6 | 4.8 | 0.00 | 0.00 | 0.00 | 78 | 1008.6 |
| 20260506120204 | 17 | 205 | 1.6 | 9.7 | 0.00 | 0.00 | 0.00 | 80 | 1008.5 |
| 20260506113704 | 17 | 190 | 1.6 | 11.3 | 0.00 | 0.00 | 0.00 | 80 | 1008.7 |
| 20260506113204 | 17 | 202 | 1.6 | 12.9 | 0.00 | 0.00 | 0.00 | 80 | 1008.7 |
| 20260506112704 | 17 | 189 | 3.2 | 8.0 | 0.00 | 0.00 | 0.00 | 80 | 1008.8 |
| 20260506110704 | 16 | 156 | 1.6 | 4.8 | 0.00 | 0.00 | 0.00 | 82 | 1008.7 |
| 20260506110205 | 16 | 154 | 1.6 | 8.0 | 0.00 | 0.00 | 0.00 | 83 | 1008.7 |
| 20260506105203 | 16 | 182 | 1.6 | 4.8 | 0.00 | 0.00 | 0.00 | 83 | 1008.8 |
| 20260506104204 | 16 | 163 | 1.6 | 4.8 | 0.00 | 0.00 | 0.00 | 82 | 1008.9 |
| 20260506103204 | 16 | 174 | 1.6 | 11.3 | 0.00 | 0.00 | 0.00 | 82 | 1008.8 |
| 20260506102704 | 16 | 163 | 0.0 | 3.2 | 0.00 | 0.00 | 0.00 | 82 | 1008.7 |
| 20260506102205 | 16 | 164 | 1.6 | 4.8 | 0.00 | 0.00 | 0.00 | 83 | 1008.6 |
| 20260506101204 | 15 | 164 | 0.0 | 3.2 | 0.00 | 0.00 | 0.00 | 82 | 1008.8 |
| 20260506100204 | 15 | 164 | 0.0 | 3.2 | 0.00 | 0.00 | 0.00 | 82 | 1008.8 |
| 20260506095204 | 16 | 165 | 1.6 | 3.2 | 0.00 | 0.00 | 0.00 | 82 | 1008.7 |
| 20260506094704 | 16 | 161 | 0.0 | 3.2 | 0.00 | 0.00 | 0.00 | 81 | 1008.7 |
| 20260506093704 | 16 | 157 | 0.0 | 1.6 | 0.00 | 0.00 | 0.00 | 81 | 1008.5 |
| 20260506092704 | 16 | 182 | 0.0 | 3.2 | 0.00 | 0.00 | 0.00 | 81 | 1008.8 |
| 20260506090704 | 16 | 126 | 1.6 | 4.8 | 0.00 | 0.00 | 0.00 | 80 | 1008.6 |
| 20260506085204 | 16 | 171 | 0.0 | 4.8 | 0.00 | 0.00 | 0.00 | 79 | 1008.7 |
| 20260506083704 | 16 | 200 | 0.0 | 1.6 | 0.00 | 0.00 | 0.00 | 78 | 1008.7 |
| 20260506080704 | 16 | 192 | 1.6 | 4.8 | 0.00 | 0.00 | 0.00 | 77 | 1008.6 |
| 20260506073204 | 17 | 172 | 0.0 | 3.2 | 0.00 | 0.00 | 0.00 | 75 | 1008.5 |
| 20260506072704 | 17 | 172 | 1.6 | 4.8 | 0.00 | 0.00 | 0.00 | 74 | 1008.5 |
| 20260506071205 | 17 | 194 | 1.6 | 8.0 | 0.00 | 0.00 | 0.00 | 74 | 1008.2 |
| 20260506061204 | 17 | 192 | 0.0 | 4.8 | 0.00 | 0.00 | 0.00 | 71 | 1008.0 |
| 20260506060705 | 17 | 209 | 1.6 | 3.2 | 0.00 | 0.00 | 0.00 | 71 | 1008.0 |
| 20260506060204 | 17 | 169 | 0.0 | 3.2 | 0.00 | 0.00 | 0.00 | 71 | 1008.0 |
| 20260506044704 | 17 | 163 | 0.0 | 3.2 | 0.00 | 0.00 | 0.00 | 69 | 1008.7 |
| 20260506044203 | 17 | 163 | 0.0 | 3.2 | 0.00 | 0.00 | 0.00 | 69 | 1008.6 |
| 20260506043704 | 17 | 163 | 0.0 | 3.2 | 0.00 | 0.00 | 0.00 | 69 | 1008.7 |
| 20260506042704 | 17 | 163 | 0.0 | 1.6 | 0.00 | 0.00 | 0.00 | 68 | 1008.6 |
| 20260506042204 | 17 | 163 | 1.6 | 4.8 | 0.00 | 0.00 | 0.00 | 67 | 1008.6 |
| 20260506041703 | 18 | 180 | 1.6 | 3.2 | 0.00 | 0.00 | 0.00 | 67 | 1008.5 |
| 20260506041204 | 18 | 180 | 0.0 | 4.8 | 0.00 | 0.00 | 0.00 | 66 | 1008.6 |
| 20260506040704 | 18 | 189 | 3.2 | 11.3 | 0.00 | 0.00 | 0.00 | 66 | 1008.6 |
| 20260506035704 | 18 | 188 | 3.2 | 11.3 | 0.00 | 0.00 | 0.00 | 66 | 1008.6 |
| 20260506035204 | 18 | 193 | 1.6 | 4.8 | 0.00 | 0.00 | 0.00 | 65 | 1008.5 |
| 20260506034704 | 18 | 193 | 1.6 | 3.2 | 0.00 | 0.00 | 0.00 | 65 | 1008.5 |
| 20260506033704 | 18 | 157 | 3.2 | 9.7 | 0.00 | 0.00 | 0.00 | 64 | 1008.4 |
| 20260506031204 | 19 | 195 | 0.0 | 4.8 | 0.00 | 0.00 | 0.00 | 64 | 1008.5 |
| 20260506030703 | 19 | 194 | 0.0 | 11.3 | 0.00 | 0.00 | 0.00 | 64 | 1008.5 |
| 20260506025704 | 19 | 211 | 1.6 | 4.8 | 0.00 | 0.00 | 0.00 | 63 | 1008.4 |
| 20260506025204 | 19 | 212 | 1.6 | 4.8 | 0.00 | 0.00 | 0.00 | 63 | 1008.4 |
| 20260506023704 | 20 | 192 | 1.6 | 4.8 | 0.00 | 0.00 | 0.00 | 61 | 1008.3 |
| 20260506022704 | 20 | 183 | 1.6 | 4.8 | 0.00 | 0.00 | 0.00 | 60 | 1008.3 |
| 20260506020704 | 20 | 207 | 1.6 | 3.2 | 0.00 | 0.00 | 0.00 | 58 | 1008.4 |
| 20260506020203 | 21 | 208 | 0.0 | 4.8 | 0.00 | 0.00 | 0.00 | 58 | 1008.3 |
| 20260506015704 | 21 | 195 | 1.6 | 4.8 | 0.00 | 0.00 | 0.00 | 58 | 1008.3 |
| 20260506013704 | 21 | 172 | 1.6 | 8.0 | 0.00 | 0.00 | 0.00 | 57 | 1008.2 |
| 20260506013203 | 21 | 175 | 1.6 | 4.8 | 0.00 | 0.00 | 0.00 | 56 | 1008.2 |
| 20260506012704 | 21 | 155 | 0.0 | 3.2 | 0.00 | 0.00 | 0.00 | 56 | 1008.1 |
| 20260506004704 | 22 | 179 | 3.2 | 4.8 | 0.00 | 0.00 | 0.00 | 53 | 1007.5 |
| 20260506003705 | 22 | 182 | 4.8 | 11.3 | 0.00 | 0.00 | 0.00 | 53 | 1007.2 |
| 20260506002704 | 22 | 182 | 4.8 | 9.7 | 0.00 | 0.00 | 0.00 | 53 | 1006.8 |
| 20260506000705 | 22 | 180 | 3.2 | 8.0 | 0.00 | 0.00 | 0.00 | 52 | 1006.2 |
| 20260506000205 | 22 | 150 | 1.6 | 4.8 | 0.00 | 0.00 | 0.00 | 50 | 1006.2 |
| 20260505235705 | 23 | 191 | 3.2 | 4.8 | 0.00 | 0.00 | 0.00 | 50 | 1006.1 |
| 20260505234705 | 23 | 175 | 1.6 | 12.9 | 0.00 | 0.00 | 0.00 | 49 | 1005.9 |
| 20260505234204 | 23 | 180 | 3.2 | 11.3 | 0.00 | 0.00 | 0.00 | 49 | 1005.9 |
| 20260505233705 | 23 | 172 | 1.6 | 8.0 | 0.00 | 0.00 | 0.00 | 49 | 1005.7 |
| 20260505232706 | 24 | 194 | 3.2 | 11.3 | 0.00 | 0.00 | 0.00 | 48 | 1005.6 |
| 20260505230706 | 25 | 197 | 4.8 | 9.7 | 0.00 | 0.00 | 0.00 | 46 | 1005.2 |
| 20260505225705 | 25 | 257 | 1.6 | 4.8 | 0.00 | 0.00 | 0.00 | 46 | 1005.0 |
| 20260505225204 | 25 | 199 | 3.2 | 9.7 | 0.00 | 0.00 | 0.00 | 45 | 1005.0 |
| 20260505224705 | 26 | 184 | 3.2 | 11.3 | 0.00 | 0.00 | 0.00 | 43 | 1005.0 |
| 20260505224205 | 26 | 193 | 4.8 | 9.7 | 0.00 | 0.00 | 0.00 | 43 | 1004.9 |
| 20260505223705 | 26 | 177 | 8.0 | 11.3 | 0.00 | 0.00 | 0.00 | 43 | 1004.8 |
| 20260505222204 | 26 | 181 | 4.8 | 14.5 | 0.00 | 0.00 | 0.00 | 41 | 1004.5 |
| 20260505221705 | 27 | 189 | 4.8 | 11.3 | 0.00 | 0.00 | 0.00 | 41 | 1004.3 |
| 20260505221205 | 27 | 211 | 4.8 | 11.3 | 0.00 | 0.00 | 0.00 | 41 | 1004.2 |
| 20260505220205 | 27 | 183 | 4.8 | 14.5 | 0.00 | 0.00 | 0.00 | 38 | 1004.0 |
| 20260505215704 | 27 | 197 | 4.8 | 14.5 | 0.00 | 0.00 | 0.00 | 39 | 1004.0 |
| 20260505215205 | 27 | 226 | 6.4 | 16.1 | 0.00 | 0.00 | 0.00 | 37 | 1004.0 |
| 20260505214705 | 27 | 192 | 3.2 | 24.1 | 0.00 | 0.00 | 0.00 | 36 | 1003.9 |
| 20260505214205 | 27 | 186 | 4.8 | 19.3 | 0.00 | 0.00 | 0.00 | 36 | 1003.9 |
| 20260505213705 | 27 | 162 | 6.4 | 16.1 | 0.00 | 0.00 | 0.00 | 36 | 1003.7 |
| 20260505212705 | 28 | 223 | 4.8 | 14.5 | 0.00 | 0.00 | 0.00 | 35 | 1003.7 |
| 20260505211205 | 28 | 211 | 6.4 | 19.3 | 0.00 | 0.00 | 0.00 | 33 | 1003.8 |
| 20260505210204 | 28 | 189 | 4.8 | 19.3 | 0.00 | 0.00 | 0.00 | 34 | 1003.8 |
| 20260505205705 | 28 | 253 | 8.0 | 19.3 | 0.00 | 0.00 | 0.00 | 32 | 1003.7 |
| 20260505204705 | 28 | 169 | 8.0 | 14.5 | 0.00 | 0.00 | 0.00 | 31 | 1003.6 |
| 20260505201204 | 28 | 211 | 6.4 | 11.3 | 0.00 | 0.00 | 0.00 | 36 | 1003.8 |
| 20260505200205 | 28 | 240 | 6.4 | 14.5 | 0.00 | 0.00 | 0.00 | 38 | 1003.8 |
| 20260505195204 | 28 | 190 | 4.8 | 14.5 | 0.00 | 0.00 | 0.00 | 35 | 1003.7 |
| 20260505194705 | 28 | 161 | 4.8 | 12.9 | 0.00 | 0.00 | 0.00 | 35 | 1003.7 |
| 20260505193704 | 28 | 212 | 4.8 | 11.3 | 0.00 | 0.00 | 0.00 | 36 | 1003.9 |
| 20260505192704 | 29 | 150 | 3.2 | 16.1 | 0.00 | 0.00 | 0.00 | 36 | 1003.9 |
| 20260505192205 | 29 | 199 | 6.4 | 16.1 | 0.00 | 0.00 | 0.00 | 36 | 1003.9 |
| 20260505191704 | 28 | 192 | 4.8 | 12.9 | 0.00 | 0.00 | 0.00 | 37 | 1004.0 |
| 20260505191205 | 28 | 226 | 4.8 | 12.9 | 0.00 | 0.00 | 0.00 | 38 | 1004.1 |
| 20260505190704 | 28 | 231 | 3.2 | 16.1 | 0.00 | 0.00 | 0.00 | 37 | 1004.3 |
| 20260505190205 | 28 | 167 | 8.0 | 27.4 | 0.00 | 0.00 | 0.00 | 37 | 1004.4 |
| 20260505185705 | 28 | 201 | 4.8 | 24.1 | 0.00 | 0.00 | 0.00 | 37 | 1004.3 |